Location: Torrington
(42.0650°N, 104.1810°W)
Time: 00:20:55
(UTC-06:00)

Daily predictions for brighter satellites

Satellite Brightness Start Highest point End
(mag) Time Altitude Azimuth Time Altitude Azimuth Time Altitude Azimuth
SL-16 R/B 4.4 02:16:19 25° NE 02:16:19 25° NE 02:19:48 10° N
CENTAUR R/B 4.4 02:30:07 24° ENE 02:30:07 24° ENE 02:33:02 10° NE
CZ-2D R/B 4.2 02:50:49 10° NNE 02:53:19 24° NE 02:53:19 24° NE
Cosmos 1980 Rocket 4.1 03:01:00 26° NNE 03:01:00 26° NNE 03:03:22 10° NNE
Resurs 1-4 Rocket 4.2 02:55:28 10° NNE 02:57:40 23° NE 02:57:40 23° NE
Cosmos 2263 Rocket 3.9 03:09:16 10° N 03:12:41 29° NNE 03:12:41 29° NNE
Lacrosse 4 Rocket 4.1 03:45:30 10° N 03:48:23 18° NE 03:51:18 10° E
Cosmos 2315 Rocket 4.1 03:54:51 68° N 03:54:51 68° N 04:00:15 10° N
SL-16 R/B 3.9 04:01:24 25° NW 04:01:24 25° NW 04:03:59 10° NNW
Cosmos 2322 Rocket 2.6 04:09:55 52° NNW 04:09:55 52° NNW 04:14:24 10° NNE
SL-16 R/B 2.6 04:13:43 53° NNW 04:13:43 53° NNW 04:18:27 10° NNE
ADEOS Rocket 3.2 04:11:52 10° N 04:16:15 47° NNW 04:16:15 47° NNW
CENTAUR R/B 3.2 04:17:17 41° NW 04:17:28 42° NW 04:24:03 10° NNE
COSMOS 2428 4.4 04:14:19 16° SSE 04:17:38 28° ESE 04:22:22 10° NE
USA 215 3.3 04:11:39 10° ESE 04:18:11 76° NE 04:24:46 10° NW
ARIANE 5 R/B 4.0 04:21:47 10° N 04:24:32 26° NNW 04:24:32 26° NNW
Cosmos 2074 Rocket 4.0 04:20:44 10° N 04:27:01 80° E 04:32:01 17° S
Cosmos 1844 Rocket 4.3 04:27:36 10° N 04:32:38 33° ENE 04:37:36 10° ESE
Cosmos 1544 Rocket 3.6 04:29:55 10° N 04:34:09 76° NE 04:34:09 76° NE
CZ-2D R/B 3.4 04:31:10 10° N 04:34:39 27° NW 04:34:39 27° NW
Cosmos 1812 4.0 04:40:07 33° N 04:40:07 33° N 04:42:21 10° N
CZ-4B R/B 3.3 04:35:17 10° NNE 04:38:35 52° E 04:38:35 52° E
Resurs 1-4 Rocket 3.6 04:35:48 10° N 04:38:45 23° NW 04:38:45 23° NW
Cosmos 2360 Rocket 2.1 04:39:41 59° SSW 04:40:48 87° WNW 04:46:29 10° NNE
Cosmos 1980 Rocket 4.1 04:42:46 15° NW 04:42:46 15° NW 04:45:49 10° N
Okean O Rocket 1.7 04:41:42 10° NNE 04:46:09 74° E 04:47:17 49° S
Cosmos 1340 2.6 04:52:57 81° N 04:52:57 81° N 04:56:35 10° N
PAYLOAD B 4.3 04:50:41 10° NNE 04:56:19 81° ESE 05:00:19 20° S
Cosmos 2263 Rocket 4.0 04:53:14 10° NW 04:54:17 15° NW 04:54:17 15° NW
Cosmos 2184 Rocket 4.0 04:55:16 10° NNW 05:01:20 58° W 05:07:20 11° S
Meteor 1-12 Rocket 4.1 04:56:11 10° NNW 05:01:49 69° W 05:07:28 10° S
Cosmos 1743 3.5 04:58:16 10° N 05:02:04 51° E 05:05:49 10° SSE
Cosmos 1777 Rocket 4.0 04:57:04 10° NNW 05:02:14 55° WSW 05:07:22 10° S
DELTA 2 R/B (1) 4.1 05:01:20 36° SSW 05:03:03 48° SSE 05:08:22 10° E
BREEZE M DEB (TANK) 4.3 04:48:56 10° WNW 05:03:57 59° N 05:08:15 10° E
ATLAS 5 CENTAUR R/B 4.1 04:59:06 10° NNW 05:04:21 32° NE 05:10:01 10° ESE
Cosmos 2333 Rocket 3.9 05:00:52 10° SSE 05:05:47 31° ESE 05:10:44 10° NE
Meteor 1-18 Rocket 4.3 05:04:41 38° SW 05:06:26 53° WNW 05:11:56 10° N
ADEOS II 2.0 05:02:40 10° NNE 05:07:57 86° WNW 05:11:50 19° SSW
Cosmos 1455 Rocket 3.1 05:04:03 10° NNW 05:08:20 52° W 05:09:09 45° SW
Lacrosse 5 3.8 05:14:13 14° S 05:14:13 14° S 05:15:01 10° S
EO 1 Del DPAF 3.1 05:09:28 24° S 05:11:39 66° WSW 05:15:30 10° NNW
MOS 1 Rocket 3.7 05:07:37 10° N 05:12:02 38° WNW 05:12:32 37° W
Cosmos 2322 3.9 05:11:53 34° WSW 05:14:11 55° WNW 05:19:49 10° NNE
Okean 1 3.8 05:15:49 40° W 05:15:53 40° WNW 05:19:45 10° N
USA 116 4.4 05:17:56 10° SSE 05:22:01 64° ENE 05:26:41 10° N
Meteor 1-13 Rocket 4.2 05:16:57 10° S 05:22:28 88° E 05:28:06 10° N
Cosmos 1975 3.5 05:22:34 10° NNW 05:26:15 33° W 05:26:22 33° W
Cosmos 1238 Rocket 1.9 05:25:23 34° SSW 05:26:32 78° W 05:29:29 10° N
Lacrosse 4 Rocket 1.5 05:23:18 10° NW 05:27:22 51° WSW 05:31:31 10° S
Tiangong 2 1.0 05:31:20 42° W 05:32:14 72° SSW 05:35:21 10° ESE
Cosmos 1500 4.4 05:29:26 10° NNW 05:31:56 24° WNW 05:31:56 24° WNW
Cosmos 2333 4.1 05:28:11 13° SSW 05:33:13 82° WNW 05:38:57 10° NNE
Cosmos 1536 Rocket 4.1 05:31:52 26° SW 05:33:46 38° WNW 05:37:58 10° N
Cosmos 1844 3.9 05:29:06 10° NNW 05:34:54 77° ENE 05:40:36 10° SSE
Cosmos 2154 Rocket 4.0 05:28:56 10° NNW 05:35:01 60° W 05:41:04 10° S
Meteor 2-19 Rocket 4.5 05:29:06 10° N 05:35:14 85° E 05:41:18 10° S
Meteor PRIRODA 3.6 05:32:16 10° N 05:36:02 79° WNW 05:39:47 10° SSW
CZ-4B DEB 4.4 05:32:09 10° N 05:37:31 50° WNW 05:42:36 11° SW
Cosmos 2208 Rocket 4.2 05:33:39 15° SW 05:38:05 60° WNW 05:43:30 10° NNE
CZ-4B R/B 3.6 05:36:18 10° N 05:41:41 47° WNW 05:46:53 10° SW
Cosmos 1867 4.3 05:40:06 10° NNW 05:45:29 57° NE 05:50:50 10° SE
RUBIN 8/PSLV 4.5 05:41:28 10° N 05:45:45 73° WNW 05:50:00 10° SSW
Okean 1-7 Rocket 3.6 05:41:16 10° S 05:45:48 85° W 05:50:19 10° N
PSLV R/B 4.3 05:44:46 10° N 05:48:40 33° WNW 05:51:46 15° SW
Cosmos 2322 Rocket 4.2 05:52:18 10° WNW 05:54:04 11° NW 05:55:51 10° NNW
ERS-2 2.3 05:51:32 10° N 05:55:10 52° WNW 05:58:45 10° SSW
Cosmos 2181 Rocket 4.0 05:49:21 10° SSW 05:55:30 69° W 06:01:48 10° N
Cosmos 1980 4.2 05:50:02 10° S 05:55:36 64° ESE 06:01:12 10° NNE
ISS -1.8 05:57:03 13° SW 05:57:03 13° SW 05:58:29 10° SSW
SL-16 R/B 4.2 05:56:32 10° WNW 05:58:11 11° NW 05:59:50 10° NNW
SL-8 Rocket 4.0 05:52:37 10° N 05:58:52 85° W 06:05:03 10° S
CZ-3A R/B -1.3 05:59:20 39° SW 05:59:40 86° NW 06:01:29 10° NE
Gblst 52 Del rocket 4.5 05:54:13 10° WNW 05:59:53 57° SW 06:06:16 10° SE
Meteor 1-23 Rocket 4.3 05:54:52 10° S 06:00:40 86° W 06:06:30 10° N
USA 215 4.0 05:55:52 10° S 06:01:32 31° SW 06:07:15 10° WNW
COSMOS 2428 3.1 05:56:23 11° SW 06:01:40 44° WNW 06:07:06 10° NNE
Thor Agena Rocket 3.4 05:58:48 10° S 06:03:51 72° WSW 06:08:54 10° NNW
Okean 2 3.5 06:00:20 10° S 06:04:29 86° E 06:08:42 10° N
Cosmos 1606 Rocket 3.7 06:00:50 10° N 06:05:20 84° E 06:09:49 10° S
Cosmos 2219 Rocket 2.2 06:02:33 10° SW 06:08:04 66° WNW 06:13:40 10° NNE
Meteor 2-9 Rocket 4.2 06:02:43 10° NNW 06:08:22 63° W 06:13:49 10° S
Cosmos 2150 Rocket 4.0 06:05:03 10° NNW 06:10:21 84° WSW 06:15:42 10° SSE
SL-8 R/B 4.3 06:06:33 10° WNW 06:11:15 55° NNE 06:15:57 10° E
Radarsat Rocket 4.2 06:05:40 10° NNE 06:11:41 75° ESE 06:17:29 10° S
USA 229 DEB 3.7 06:05:25 10° SW 06:12:16 79° NW 06:19:16 10° NNE
USA 229 3.7 06:05:32 10° SW 06:12:22 80° NW 06:19:21 10° NE
Cosmos 2341 Rocket 4.4 06:06:51 10° NNW 06:12:37 40° W 06:18:20 10° SSW
CZ-4B R/B 4.5 06:08:35 10° N 06:12:54 46° WNW 06:17:11 10° SW
Meteor 1-28 Rocket 3.6 06:09:55 10° SSE 06:13:41 70° ENE 06:17:30 10° N
Cosmos 1844 Rocket 3.2 06:11:26 10° NW 06:16:31 36° WSW 06:21:33 10° S
Meteor 1-15 Rocket 4.3 06:13:20 10° NNW 06:19:14 71° W 06:25:06 10° S
CZ-4 R/B 4.5 06:17:28 10° NE 06:20:09 17° E 06:22:47 10° SE
Cosmos 990 Rocket 4.0 06:16:15 10° NNW 06:21:28 88° WSW 06:26:36 10° SSE
Okean O Rocket 3.6 06:20:13 10° NW 06:21:56 12° WNW 06:23:39 10° W
Cosmos 1898 Rocket 3.7 06:16:56 10° NNW 06:21:58 50° WSW 06:26:55 10° S
Cosmos 2218 Rocket 4.1 06:15:43 10° NNW 06:22:04 68° W 06:28:19 10° S
Cosmos 1441 Rocket 3.7 06:20:18 10° S 06:24:13 68° E 06:28:12 10° NNE
Cosmos 468 Rocket 4.2 06:20:17 10° SW 06:25:19 52° WNW 06:30:27 10° N
Cosmos 2360 Rocket 3.9 06:22:24 10° W 06:25:40 15° NW 06:28:57 10° N
Cosmos 371 Rocket 3.9 06:22:03 10° S 06:26:50 64° ESE 06:31:40 10° NNE
Cosmos 2278 Rocket 2.2 06:21:33 10° NNW 06:27:13 73° WSW 06:32:50 10° SSE
